Time,TemperatureF,DewpointF,PressureIn,WindDirection,WindDirectionDegrees,WindSpeedMPH,WindSpeedGustMPH,Humidity,HourlyPrecipIn,Conditions,Clouds,dailyrainin,SoftwareType,DateUTC
2013-03-01 05:25:00,26.9,22.7,30.21,NNW,346,6.0,6.0,84,0.00,,,0.00,Wunderground v.1.15,2013-03-01 11:25:00,
2013-03-01 05:30:00,26.8,22.6,30.21,North,356,6.0,8.0,84,0.00,,,0.00,Wunderground v.1.15,2013-03-01 11:30:00,
2013-03-01 05:35:00,26.8,22.6,30.21,NNE,12,7.0,7.0,84,0.00,,,0.00,Wunderground v.1.15,2013-03-01 11:35:00,
2013-03-01 05:40:00,26.7,22.5,30.22,North,4,7.0,7.0,84,0.00,,,0.00,Wunderground v.1.15,2013-03-01 11:40:00,
2013-03-01 05:45:00,26.7,22.5,30.22,NE,36,6.0,6.0,84,0.00,,,0.00,Wunderground v.1.15,2013-03-01 11:45:00,
2013-03-01 05:50:00,26.7,22.5,30.22,NNE,27,5.0,6.0,84,0.00,,,0.00,Wunderground v.1.15,2013-03-01 11:50:00,
2013-03-01 05:55:00,26.6,22.4,30.22,NW,322,7.0,7.0,84,0.00,,,0.00,Wunderground v.1.15,2013-03-01 11:55:00,
2013-03-01 06:00:00,26.6,22.4,30.22,NNE,29,7.0,7.0,84,0.00,,,0.00,Wunderground v.1.15,2013-03-01 12:00:00,
2013-03-01 06:10:00,26.5,22.3,30.22,North,352,6.0,6.0,84,0.00,,,0.00,Wunderground v.1.15,2013-03-01 12:10:00,
2013-03-01 06:15:00,26.4,22.5,30.22,North,5,5.0,7.0,85,0.00,,,0.00,Wunderground v.1.15,2013-03-01 12:15:00,
2013-03-01 06:20:00,26.3,22.4,30.22,NNE,20,5.0,8.0,85,0.00,,,0.00,Wunderground v.1.15,2013-03-01 12:20:00,
2013-03-01 06:25:00,26.2,21.7,30.22,NNW,340,6.0,8.0,83,0.00,,,0.00,Wunderground v.1.15,2013-03-01 12:25:00,
2013-03-01 06:30:00,26.1,21.4,30.22,NNE,32,7.0,7.0,82,0.00,,,0.00,Wunderground v.1.15,2013-03-01 12:30:00,
2013-03-01 06:40:00,26.0,21.5,30.23,NNE,17,6.0,7.0,83,0.00,,,0.00,Wunderground v.1.15,2013-03-01 12:40:00,
2013-03-01 06:50:00,26.0,21.8,30.23,North,351,5.0,6.0,84,0.00,,,0.00,Wunderground v.1.15,2013-03-01 12:50:00,
2013-03-01 07:00:00,25.9,21.4,30.24,North,352,6.0,6.0,83,0.00,,,0.00,Wunderground v.1.15,2013-03-01 13:00:00,
2013-03-01 07:10:00,25.9,21.4,30.24,NNW,332,5.0,5.0,83,0.00,,,0.00,Wunderground v.1.15,2013-03-01 13:10:00,
2013-03-01 07:15:00,25.9,21.4,30.24,NNE,15,6.0,6.0,83,0.00,,,0.00,Wunderground v.1.15,2013-03-01 13:15:00,
2013-03-01 07:20:00,25.9,21.4,30.24,NNW,343,6.0,6.0,83,0.00,,,0.00,Wunderground v.1.15,2013-03-01 13:20:00,
2013-03-01 07:30:00,26.0,21.5,30.25,North,352,4.0,4.0,83,0.00,,,0.00,Wunderground v.1.15,2013-03-01 13:30:00,
2013-03-01 07:35:00,26.1,21.6,30.25,NNE,17,4.0,5.0,83,0.00,,,0.00,Wunderground v.1.15,2013-03-01 13:35:00,
2013-03-01 07:45:00,26.2,22.0,30.25,NNE,24,4.0,7.0,84,0.00,,,0.00,Wunderground v.1.15,2013-03-01 13:45:00,
2013-03-01 07:55:00,26.3,22.1,30.25,North,1,6.0,7.0,84,0.00,,,0.00,Wunderground v.1.15,2013-03-01 13:55:00,
2013-03-01 08:00:00,26.4,22.2,30.25,North,5,6.0,11.0,84,0.00,,,0.00,Wunderground v.1.15,2013-03-01 14:00:00,
2013-03-01 08:10:00,26.5,22.3,30.26,North,357,8.0,8.0,84,0.00,,,0.00,Wunderground v.1.15,2013-03-01 14:10:00,
2013-03-01 08:20:00,26.5,22.3,30.26,NNW,343,7.0,7.0,84,0.00,,,0.00,Wunderground v.1.15,2013-03-01 14:20:00,
2013-03-01 08:30:00,26.5,22.3,30.26,NNE,20,8.0,12.0,84,0.00,,,0.00,Wunderground v.1.15,2013-03-01 14:30:00,
2013-03-01 08:35:00,26.5,22.3,30.26,NNE,26,9.0,12.0,84,0.00,,,0.00,Wunderground v.1.15,2013-03-01 14:35:00,
2013-03-01 08:45:00,26.6,22.7,30.26,NNE,33,8.0,9.0,85,0.00,,,0.00,Wunderground v.1.15,2013-03-01 14:45:00,
2013-03-01 08:55:00,26.7,22.5,30.26,NE,43,8.0,13.0,84,0.00,,,0.00,Wunderground v.1.15,2013-03-01 14:55:00,
2013-03-01 09:00:00,26.7,22.5,30.26,North,11,10.0,10.0,84,0.00,,,0.00,Wunderground v.1.15,2013-03-01 15:00:00,
2013-03-01 09:10:00,26.9,22.7,30.26,NNW,345,9.0,9.0,84,0.00,,,0.00,Wunderground v.1.15,2013-03-01 15:10:00,
2013-03-01 09:15:00,27.1,22.9,30.27,NNE,29,8.0,9.0,84,0.00,,,0.00,Wunderground v.1.15,2013-03-01 15:15:00,
2013-03-01 09:20:00,27.1,22.6,30.27,NNW,347,8.0,11.0,83,0.00,,,0.00,Wunderground v.1.15,2013-03-01 15:20:00,
2013-03-01 09:30:00,27.0,22.8,30.27,NNW,343,10.0,10.0,84,0.00,,,0.00,Wunderground v.1.15,2013-03-01 15:30:00,
2013-03-01 09:35:00,27.1,22.9,30.27,NE,48,9.0,10.0,84,0.00,,,0.00,Wunderground v.1.15,2013-03-01 15:35:00,
2013-03-01 09:45:00,27.3,22.8,30.27,North,354,9.0,12.0,83,0.00,,,0.00,Wunderground v.1.15,2013-03-01 15:45:00,
2013-03-01 09:50:00,27.4,22.6,30.27,NNE,13,10.0,10.0,82,0.00,,,0.00,Wunderground v.1.15,2013-03-01 15:50:00,
2013-03-01 10:00:00,27.7,22.9,30.27,North,5,8.0,11.0,82,0.00,,,0.00,Wunderground v.1.15,2013-03-01 16:00:00,
2013-03-01 10:10:00,27.7,22.9,30.27,North,6,9.0,13.0,82,0.00,,,0.00,Wunderground v.1.15,2013-03-01 16:10:00,
2013-03-01 10:15:00,27.6,22.8,30.28,NNE,20,8.0,13.0,82,0.00,,,0.00,Wunderground v.1.15,2013-03-01 16:15:00,
2013-03-01 10:25:00,27.8,23.0,30.28,NNW,342,6.0,8.0,82,0.00,,,0.00,Wunderground v.1.15,2013-03-01 16:25:00,
2013-03-01 10:30:00,27.9,23.4,30.28,NNW,348,5.0,8.0,83,0.00,,,0.00,Wunderground v.1.15,2013-03-01 16:30:00,
2013-03-01 10:40:00,27.8,23.0,30.28,NW,325,7.0,7.0,82,0.00,,,0.00,Wunderground v.1.15,2013-03-01 16:40:00,
2013-03-01 10:50:00,28.2,23.4,30.28,NNW,327,6.0,6.0,82,0.00,,,0.00,Wunderground v.1.15,2013-03-01 16:50:00,
2013-03-01 11:00:00,28.5,23.4,30.28,NW,318,6.0,6.0,81,0.00,,,0.00,Wunderground v.1.15,2013-03-01 17:00:00,
2013-03-01 11:10:00,28.7,23.9,30.28,NW,316,4.0,6.0,82,0.00,,,0.00,Wunderground v.1.15,2013-03-01 17:10:00,
2013-03-01 11:15:00,28.8,24.0,30.28,North,356,4.0,6.0,82,0.00,,,0.00,Wunderground v.1.15,2013-03-01 17:15:00,
2013-03-01 11:25:00,29.0,24.2,30.28,NNW,347,5.0,6.0,82,0.00,,,0.00,Wunderground v.1.15,2013-03-01 17:25:00,
2013-03-01 11:35:00,29.1,24.0,30.28,NW,321,6.0,8.0,81,0.00,,,0.00,Wunderground v.1.15,2013-03-01 17:35:00,
2013-03-01 11:45:00,29.5,24.4,30.28,NNW,339,4.0,6.0,81,0.00,,,0.00,Wunderground v.1.15,2013-03-01 17:45:00,
2013-03-01 11:55:00,29.4,24.0,30.28,North,11,6.0,10.0,80,0.00,,,0.00,Wunderground v.1.15,2013-03-01 17:55:00,
2013-03-01 12:00:00,29.3,23.9,30.28,North,5,7.0,7.0,80,0.00,,,0.00,Wunderground v.1.15,2013-03-01 18:00:00,
2013-03-01 12:10:00,29.4,24.0,30.28,NW,325,7.0,7.0,80,0.00,,,0.00,Wunderground v.1.15,2013-03-01 18:10:00,
2013-03-01 12:20:00,29.5,23.8,30.27,NNW,333,6.0,6.0,79,0.00,,,0.00,Wunderground v.1.15,2013-03-01 18:20:00,
2013-03-01 12:30:00,29.8,24.1,30.27,NNW,342,8.0,8.0,79,0.00,,,0.00,Wunderground v.1.15,2013-03-01 18:30:00,
2013-03-01 12:35:00,30.0,23.7,30.27,NNW,345,7.0,8.0,77,0.00,,,0.00,Wunderground v.1.15,2013-03-01 18:35:00,
2013-03-01 12:45:00,29.7,23.7,30.27,NNE,20,10.0,10.0,78,0.00,,,0.00,Wunderground v.1.15,2013-03-01 18:45:00,
2013-03-01 12:50:00,29.9,24.2,30.27,NNE,22,9.0,12.0,79,0.00,,,0.00,Wunderground v.1.15,2013-03-01 18:50:00,
2013-03-01 13:00:00,29.8,23.5,30.26,North,354,10.0,10.0,77,0.00,,,0.00,Wunderground v.1.15,2013-03-01 19:00:00,
2013-03-01 13:10:00,29.8,23.5,30.26,NNE,30,11.0,11.0,77,0.00,,,0.00,Wunderground v.1.15,2013-03-01 19:10:00,
2013-03-01 13:20:00,29.7,23.7,30.26,North,6,10.0,12.0,78,0.00,,,0.00,Wunderground v.1.15,2013-03-01 19:20:00,
2013-03-01 13:30:00,29.8,23.8,30.26,NNW,338,10.0,10.0,78,0.00,,,0.00,Wunderground v.1.15,2013-03-01 19:30:00,
2013-03-01 13:35:00,29.8,23.8,30.26,NNE,20,10.0,10.0,78,0.00,,,0.00,Wunderground v.1.15,2013-03-01 19:35:00,
2013-03-01 13:45:00,29.9,23.9,30.26,North,354,9.0,10.0,78,0.00,,,0.00,Wunderground v.1.15,2013-03-01 19:45:00,
2013-03-01 13:55:00,29.7,23.7,30.26,NE,36,10.0,12.0,78,0.00,,,0.00,Wunderground v.1.15,2013-03-01 19:55:00,
2013-03-01 14:00:00,29.7,23.7,30.26,NNW,334,11.0,11.0,78,0.00,,,0.00,Wunderground v.1.15,2013-03-01 20:00:00,
2013-03-01 14:10:00,29.7,23.7,30.26,NNW,339,10.0,10.0,78,0.00,,,0.00,Wunderground v.1.15,2013-03-01 20:10:00,
2013-03-01 14:20:00,29.7,23.7,30.26,NNW,336,10.0,10.0,78,0.00,,,0.00,Wunderground v.1.15,2013-03-01 20:20:00,
2013-03-01 14:25:00,29.8,24.1,30.26,NNE,26,9.0,10.0,79,0.00,,,0.00,Wunderground v.1.15,2013-03-01 20:25:00,
2013-03-01 14:35:00,29.5,23.5,30.27,NNE,33,10.0,10.0,78,0.00,,,0.00,Wunderground v.1.15,2013-03-01 20:35:00,
2013-03-01 14:45:00,29.4,24.0,30.27,NNW,332,9.0,13.0,80,0.00,,,0.00,Wunderground v.1.15,2013-03-01 20:45:00,
2013-03-01 14:55:00,29.6,23.9,30.27,NW,305,6.0,9.0,79,0.00,,,0.00,Wunderground v.1.15,2013-03-01 20:55:00,
2013-03-01 15:00:00,29.2,23.8,30.28,North,352,7.0,7.0,80,0.00,,,0.00,Wunderground v.1.15,2013-03-01 21:00:00,
2013-03-01 15:10:00,29.3,23.9,30.28,NNE,18,7.0,11.0,80,0.00,,,0.00,Wunderground v.1.15,2013-03-01 21:10:00,
2013-03-01 15:15:00,29.0,23.3,30.28,North,6,10.0,11.0,79,0.00,,,0.00,Wunderground v.1.15,2013-03-01 21:15:00,
2013-03-01 15:20:00,28.9,23.5,30.28,North,9,11.0,12.0,80,0.00,,,0.00,Wunderground v.1.15,2013-03-01 21:20:00,
2013-03-01 15:30:00,28.7,23.3,30.28,NNE,15,11.0,14.0,80,0.00,,,0.00,Wunderground v.1.15,2013-03-01 21:30:00,
2013-03-01 15:40:00,28.6,23.5,30.28,NE,40,10.0,10.0,81,0.00,,,0.00,Wunderground v.1.15,2013-03-01 21:40:00,
2013-03-01 15:50:00,28.7,23.9,30.29,NNW,342,8.0,8.0,82,0.00,,,0.00,Wunderground v.1.15,2013-03-01 21:50:00,
2013-03-01 16:00:00,28.4,23.9,30.29,North,353,8.0,9.0,83,0.00,,,0.00,Wunderground v.1.15,2013-03-01 22:00:00,
2013-03-01 16:10:00,28.2,24.0,30.29,NNW,344,8.0,9.0,84,0.00,,,0.00,Wunderground v.1.15,2013-03-01 22:10:00,
2013-03-01 16:20:00,27.9,23.7,30.29,North,5,9.0,11.0,84,0.00,,,0.00,Wunderground v.1.15,2013-03-01 22:20:00,
2013-03-01 16:25:00,27.8,23.6,30.30,NNE,22,9.0,11.0,84,0.00,,,0.00,Wunderground v.1.15,2013-03-01 22:25:00,
2013-03-01 16:35:00,27.6,24.0,30.30,NNE,13,8.0,12.0,86,0.00,,,0.00,Wunderground v.1.15,2013-03-01 22:35:00,
2013-03-01 16:45:00,27.4,23.5,30.30,North,350,8.0,10.0,85,0.00,,,0.00,Wunderground v.1.15,2013-03-01 22:45:00,
2013-03-01 16:55:00,27.1,23.5,30.30,NNE,15,8.0,9.0,86,0.00,,,0.00,Wunderground v.1.15,2013-03-01 22:55:00,
2013-03-01 17:00:00,27.0,23.1,30.30,NNW,338,9.0,9.0,85,0.00,,,0.00,Wunderground v.1.15,2013-03-01 23:00:00,
2013-03-01 17:10:00,26.8,23.2,30.30,NE,37,9.0,10.0,86,0.00,,,0.00,Wunderground v.1.15,2013-03-01 23:10:00,
2013-03-01 17:15:00,26.7,23.4,30.31,NNW,346,8.0,10.0,87,0.00,,,0.00,Wunderground v.1.15,2013-03-01 23:15:00,
2013-03-01 17:20:00,26.7,23.4,30.31,NNW,344,7.0,13.0,87,0.00,,,0.00,Wunderground v.1.15,2013-03-01 23:20:00,
2013-03-01 17:30:00,26.5,23.4,30.31,NNW,327,8.0,8.0,88,0.00,,,0.00,Wunderground v.1.15,2013-03-01 23:30:00,
2013-03-01 17:40:00,26.3,23.5,30.31,NW,309,5.0,5.0,89,0.00,,,0.00,Wunderground v.1.15,2013-03-01 23:40:00,
2013-03-01 17:45:00,26.3,23.5,30.32,NNW,340,6.0,6.0,89,0.00,,,0.00,Wunderground v.1.15,2013-03-01 23:45:00,
2013-03-01 17:55:00,26.1,23.3,30.32,North,357,7.0,12.0,89,0.00,,,0.00,Wunderground v.1.15,2013-03-01 23:55:00,
2013-03-01 18:00:00,26.0,23.2,30.32,North,354,8.0,9.0,89,0.00,,,0.00,Wunderground v.1.15,2013-03-02 00:00:00,
2013-03-01 18:10:00,25.9,23.1,30.33,North,8,8.0,8.0,89,0.00,,,0.00,Wunderground v.1.15,2013-03-02 00:10:00,
2013-03-01 18:20:00,25.7,22.9,30.33,North,353,6.0,6.0,89,0.00,,,0.00,Wunderground v.1.15,2013-03-02 00:20:00,
2013-03-01 18:30:00,25.5,23.0,30.33,NNW,342,7.0,7.0,90,0.00,,,0.00,Wunderground v.1.15,2013-03-02 00:30:00,
2013-03-01 18:40:00,25.3,22.8,30.34,NNE,29,6.0,6.0,90,0.00,,,0.00,Wunderground v.1.15,2013-03-02 00:40:00,
2013-03-01 18:45:00,25.3,22.8,30.34,North,8,6.0,6.0,90,0.00,,,0.00,Wunderground v.1.15,2013-03-02 00:45:00,
2013-03-01 18:55:00,25.3,22.8,30.34,NNW,328,6.0,8.0,90,0.00,,,0.00,Wunderground v.1.15,2013-03-02 00:55:00,
2013-03-01 19:00:00,25.2,22.7,30.34,North,351,6.0,9.0,90,0.00,,,0.00,Wunderground v.1.15,2013-03-02 01:00:00,
2013-03-01 19:10:00,25.1,22.6,30.34,NNW,346,5.0,5.0,90,0.00,,,0.00,Wunderground v.1.15,2013-03-02 01:10:00,
2013-03-01 19:20:00,25.1,22.3,30.34,North,8,5.0,7.0,89,0.00,,,0.00,Wunderground v.1.15,2013-03-02 01:20:00,
2013-03-01 19:30:00,25.0,22.2,30.34,NNE,19,5.0,7.0,89,0.00,,,0.00,Wunderground v.1.15,2013-03-02 01:30:00,
2013-03-01 19:35:00,25.0,21.9,30.34,North,8,5.0,7.0,88,0.00,,,0.00,Wunderground v.1.15,2013-03-02 01:35:00,
2013-03-01 19:45:00,24.9,22.1,30.34,North,5,5.0,6.0,89,0.00,,,0.00,Wunderground v.1.15,2013-03-02 01:45:00,
2013-03-01 19:50:00,24.8,21.8,30.34,North,353,5.0,5.0,88,0.00,,,0.00,Wunderground v.1.15,2013-03-02 01:50:00,
2013-03-01 20:00:00,24.7,21.7,30.34,North,10,5.0,5.0,88,0.00,,,0.00,Wunderground v.1.15,2013-03-02 02:00:00,
2013-03-01 20:10:00,24.7,21.7,30.35,NNE,20,6.0,8.0,88,0.00,,,0.00,Wunderground v.1.15,2013-03-02 02:10:00,
2013-03-01 20:15:00,24.6,21.6,30.35,North,8,5.0,9.0,88,0.00,,,0.00,Wunderground v.1.15,2013-03-02 02:15:00,
2013-03-01 20:25:00,24.6,21.6,30.35,NNW,336,5.0,9.0,88,0.00,,,0.00,Wunderground v.1.15,2013-03-02 02:25:00,
2013-03-01 20:30:00,24.6,21.6,30.35,North,4,5.0,8.0,88,0.00,,,0.00,Wunderground v.1.15,2013-03-02 02:30:00,
2013-03-01 20:40:00,24.6,21.3,30.35,North,353,6.0,6.0,87,0.00,,,0.00,Wunderground v.1.15,2013-03-02 02:40:00,
2013-03-01 20:45:00,24.6,21.3,30.35,NNE,12,7.0,8.0,87,0.00,,,0.00,Wunderground v.1.15,2013-03-02 02:45:00,
2013-03-01 20:55:00,24.6,21.3,30.35,NNW,348,6.0,8.0,87,0.00,,,0.00,Wunderground v.1.15,2013-03-02 02:55:00,
2013-03-01 21:00:00,24.6,21.0,30.35,NNE,31,7.0,7.0,86,0.00,,,0.00,Wunderground v.1.15,2013-03-02 03:00:00,
2013-03-01 21:10:00,24.7,21.1,30.35,NNW,332,6.0,6.0,86,0.00,,,0.00,Wunderground v.1.15,2013-03-02 03:10:00,
2013-03-01 21:20:00,24.8,21.2,30.35,North,5,7.0,7.0,86,0.00,,,0.00,Wunderground v.1.15,2013-03-02 03:20:00,
2013-03-01 21:25:00,24.8,20.9,30.35,North,350,7.0,8.0,85,0.00,,,0.00,Wunderground v.1.15,2013-03-02 03:25:00,
2013-03-01 21:35:00,24.8,20.9,30.35,NW,323,6.0,6.0,85,0.00,,,0.00,Wunderground v.1.15,2013-03-02 03:35:00,
2013-03-01 21:40:00,24.8,20.7,30.35,NNW,343,6.0,6.0,84,0.00,,,0.00,Wunderground v.1.15,2013-03-02 03:40:00,
2013-03-01 21:50:00,24.8,20.7,30.35,NNW,332,6.0,6.0,84,0.00,,,0.00,Wunderground v.1.15,2013-03-02 03:50:00,